Location: La Pernelle
(49.6188°N, 1.2999°W)
Time: 14:09:12
(UTC+00:00)

OPS 8737 - Pass Details

Date: 12 June 2021
Orbit: 355 x 1710 km, 63.3° (Epoch: 17 July)

Event Time Altitude Azimuth Distance (km) Brightness Sun altitude
Exits shadow 23:46:12 24° 231° (SW) 1,031 5.9 -17.0°
Maximum altitude 23:48:13 74° 313° (NW) 460 4.5 -17.1°
Drops below altitude 10° 23:51:15 10° 39° (NE) 1,421 7.6 -17.1°
Sets 23:53:05 0° 42° (NE) 2,221 8.6 -17.1°
